Regional Weather Roundup
Issued by NWS Sterling, VA

Home | Current Version | Previous Version | Text Only | Print | Product List | Glossary On
Versions: 1 2 3 4 5 6 7 8 9 10 11 12 13 14 15 16 17 18 19 20 21 22 23 24 25 26 27 28 29 30 31 32 33 34 35 36 37 38 39 40 41 42 43 44 45 46 47 48 49 50
000
ASUS41 KLWX 280912
RWRLWX

REGIONAL WEATHER ROUNDUP
NATIONAL WEATHER SERVICE BALTIMORE MD/WASHINGTON DC
500 AM EDT MON SEP 28 2020

Note: "FAIR" indicates few or no clouds below 12,000 feet
with no significant weather and/or obstructions to visibility.
 TC=TEMPERATURE CELSIUS

 * =Non NWS site. Station does not report precipitation (e.g. rain,
    snow, etc.), thunder, or fog.

DCZ001-MDZ009-015-VAZ040>042-051-053>054-281000-
WASHINGTON METRO

CITY           SKY/WX    TMP DP  RH WIND       PRES   REMARKS
WASHINGTON NAT LGT RAIN  68  65  90 S7        29.87F
DULLES         MOCLDY    66  64  93 S9        29.87F
ANDREWS AFB    CLOUDY    66  66  99 S7        29.87F
FT BELVOIR     CLOUDY    65  64  96 CALM      29.87F
QUANTICO       CLOUDY    68  65  90 S10       29.88F
COLLEGE PARK*  CLOUDY    66  64  93 S3        29.87F
LEESBURG*      CLOUDY    59  59 100 CALM      29.88S
MANASSAS*      MOCLDY    63  63 100 CALM      29.87
GAITHERSBURG*  CLOUDY    66  64  93 VRB5      29.89R

$$

MDZ006>007-011-014-281000-
BALTIMORE METRO

CITY           SKY/WX    TMP DP  RH WIND       PRES   REMARKS
BWI AIRPORT    CLOUDY    67  64  90 W3        29.87
ANNAPOLIS      CLOUDY    68  68 100 CALM      29.87F
ABERDEEN*      CLOUDY    66  66  99 SW3       29.88S
FORT MEADE*    CLOUDY    63  63 100 CALM      29.90S

$$

MDZ012-015-019>023-281000-
MARYLAND EASTERN SHORE

CITY           SKY/WX    TMP DP  RH WIND       PRES   REMARKS
OCEAN CITY     MOCLDY    69  67  93 SW6       29.91F
SALISBURY      CLOUDY    67  65  93 S6        29.90F
BAY BRIDGE AP* CLOUDY    70  68  94 S5        29.88F
CAMBRIDGE*     MOCLDY    68  68 100 SE3       29.89F
EASTON*        CLOUDY    69  68  96 S5        29.93S

$$

MDZ017>025-281000-
SOUTHERN MARYLAND

CITY           SKY/WX    TMP DP  RH WIND       PRES   REMARKS
PATUXENT RIVER CLOUDY    69  64  84 S10       29.89S
ST INIGOES     CLOUDY    71  66  84 S6        29.89S
LEONARDTOWN*   CLOUDY    66  63  88 SW3       29.91S

$$

MDZ003>005-281000-
NORTH CENTRAL MARYLAND

CITY           SKY/WX    TMP DP  RH WIND       PRES   REMARKS
FREDERICK*     MOCLDY    64  64 100 S3        29.87S
HAGERSTOWN APT CLOUDY    65  62  90 CALM      29.86S
WESTMINSTER*   MOCLDY    66  66 100 S7        29.88S

$$

MDZ501>502-281000-
WESTERN MARYLAND

CITY           SKY/WX    TMP DP  RH WIND       PRES   REMARKS
OAKLAND*       PTCLDY    55  54  94 S7        29.91F
CUMBERLAND*    PTCLDY    59  59  98 N3        29.89F

$$

VAZ025>031-281000-
SHENANDOAH VALLEY

CITY           SKY/WX    TMP DP  RH WIND       PRES   REMARKS
WINCHESTER*    PTCLDY    61  59  94 SW3       29.85S
FRONT ROYAL*   MOCLDY    63  63 100 S3        29.85F
LURAY*         CLEAR     59  59 100 CALM      29.87F
NEW MARKET*    NOT AVBL
STAUNTON*        N/A     56  56  99 S3        29.91F FOG
WAYNESBORO*    PTCLDY    58  57  99 CALM      29.90F

$$

WVZ021-048>050-054>055-281000-
EASTERN WEST VIRGINIA PANHANDLE

CITY           SKY/WX    TMP DP  RH WIND       PRES   REMARKS
MARTINSBURG    MOCLDY    62  60  93 CALM      29.84F
PETERSBURG*    CLEAR     56  56 100 CALM      29.87F

$$

VAZ036>039-050-281000-
CENTRAL FOOTHILLS

CITY           SKY/WX    TMP DP  RH WIND       PRES   REMARKS
CHARLOTTESVILL CLOUDY    66  64  93 S7        29.88S FOG
CULPEPER*      MOCLDY    65  64  94 S3        29.88F
ORANGE*        MOCLDY    63  63 100 CALM      29.88F
GORDONSVILLE*  MOCLDY    64  64 100 SW3       29.88F
WARRENTON*     PTCLDY    66  63  91 CALM      29.87F

$$

VAZ055>057-281000-
NORTH AND CENTRAL PIEDMONT

CITY           SKY/WX    TMP DP  RH WIND       PRES   REMARKS
FREDERICKSBRG* MOCLDY    66  66 100 CALM      29.88S
STAFFORD*      CLOUDY    66  66 100 CALM      29.92F

$$

NCZ024-NYZ072-PAZ021-071-VAZ022-071-281000-
OTHER REGIONAL OBSERVATIONS

CITY           SKY/WX    TMP DP  RH WIND       PRES   REMARKS
NEW YORK CITY  CLOUDY    70  69  97 VRB3      29.90S
PHILADELPHIA   CLOUDY    70  68  93 S8        29.87
PITTSBURGH     MOCLDY    61  58  90 CALM      29.81F
ROANOKE        FOG       61  61 100 CALM      29.93  VSB 3/4
RICHMOND       MOCLDY    66  64  93 S6        29.91
RALEIGH        PTCLDY    64  64 100 S3        29.93

$$

ANZ530>537-281000-
MARINE OBSERVATIONS

STATION/POSITION TIME  TEMP    WIND        PRES
                       AIR SEA DIR/SP/G
                 (UTC) (F)     (DEG/KT/KT) (MB)
THOMAS PT LIGHT  0900   69 71  170/ 15/ 15 1012.5F
TOLCHESTER       0812   69 71  160/  4/  5 1011.9F
GOOSES REEF      0830   69 71  220/ 10/ 10   N/A
COVE POINT       0818          200/ 10/ 11 1012.7F
BALT HARBOR      0812   68 74  180/  2/  3 1011.2F
BALT KEY BRIDGE  0812   68     160/  5/  7 1011.3F
WASH DC CHANNEL  0812   68 69  190/  6/  8 1011.9S
DAHLGREN         0806   68 71  240/  7/  8 1011.4F
LEWISETTA        0806   68 69  220/  8/ 10 1012.4F
SOLOMONS ISLAND  0812   69 71  210/  9/ 11 1012.1F
PINEY POINT      0818          230/ 11/ 13   N/A
CAMBRIDGE PIER   0812   69 69  160/  3/  5 1012.3F
BISHOPS HEAD     0812   71 72  220/  8/ 11 1012.3F

$$




USA.gov is the U.S. government's official web portal to all federal, state and local government web resources and services.